| time (UTC) | temp C | wind direction | speed KPH | gust KPH | rain 1hr cm | rain 24hr cm | rain mn cm | humidity % | barometer mb |
| 20260504081218 | 16 | 90 | 1.6 | 6.4 | 0.00 | 0.15 | 0.00 | 92 | 1011.8 |
| 20260504080717 | 16 | 99 | 3.2 | 6.4 | 0.00 | 0.15 | 0.00 | 94 | 1011.9 |
| 20260504080217 | 15 | 87 | 1.6 | 4.8 | 0.00 | 0.15 | 0.00 | 96 | 1011.8 |
| 20260504070217 | 13 | 94 | 0.0 | 3.2 | 0.00 | 0.15 | 0.00 | 96 | 1011.8 |
| 20260504050724 | 13 | 99 | 0.0 | 0.0 | 0.00 | 0.15 | 0.00 | 94 | 1011.2 |
| 20260504050522 | 13 | 99 | 0.0 | 0.0 | 0.00 | 0.15 | 0.00 | 95 | 1011.2 |
| 20260504050018 | 13 | 99 | 0.0 | 0.0 | 0.00 | 0.15 | 0.00 | 95 | 1011.1 |
| 20260504045212 | 13 | 99 | 0.0 | 0.0 | 0.00 | 0.15 | 0.00 | 95 | 1011.1 |
| 20260504044714 | 13 | 99 | 0.0 | 0.0 | 0.00 | 0.15 | 0.00 | 95 | 1011.1 |
| 20260504044213 | 13 | 99 | 0.0 | 0.0 | 0.00 | 0.15 | 0.00 | 94 | 1011.2 |
| 20260504043712 | 13 | 99 | 0.0 | 0.0 | 0.00 | 0.15 | 0.00 | 94 | 1011.2 |
| 20260504043212 | 13 | 99 | 0.0 | 0.0 | 0.00 | 0.15 | 0.00 | 94 | 1011.2 |
| 20260504042709 | 13 | 99 | 0.0 | 1.6 | 0.00 | 0.15 | 0.00 | 94 | 1011.1 |
| 20260504042519 | 13 | 99 | 0.0 | 1.6 | 0.00 | 0.15 | 0.00 | 94 | 1010.9 |
| 20260504041711 | 13 | 99 | 0.0 | 0.0 | 0.00 | 0.15 | 0.00 | 94 | 1011.0 |
| 20260504041212 | 13 | 99 | 0.0 | 0.0 | 0.00 | 0.15 | 0.00 | 94 | 1011.1 |
| 20260504040711 | 13 | 99 | 0.0 | 1.6 | 0.00 | 0.15 | 0.00 | 94 | 1011.1 |
| 20260504040213 | 13 | 99 | 0.0 | 3.2 | 0.00 | 0.15 | 0.00 | 94 | 1010.8 |
| 20260504035712 | 13 | 99 | 1.6 | 3.2 | 0.00 | 0.15 | 0.00 | 94 | 1010.7 |
| 20260504035515 | 13 | 106 | 0.0 | 1.6 | 0.00 | 0.15 | 0.00 | 94 | 1010.8 |
| 20260504034711 | 13 | 113 | 0.0 | 0.0 | 0.00 | 0.15 | 0.00 | 94 | 1010.8 |
| 20260504034211 | 13 | 113 | 0.0 | 1.6 | 0.00 | 0.15 | 0.00 | 94 | 1010.9 |
| 20260504034018 | 13 | 113 | 0.0 | 1.6 | 0.00 | 0.15 | 0.00 | 94 | 1010.8 |
| 20260504033210 | 13 | 113 | 0.0 | 0.0 | 0.00 | 0.15 | 0.00 | 94 | 1010.8 |
| 20260504032711 | 13 | 113 | 0.0 | 0.0 | 0.00 | 0.15 | 0.00 | 94 | 1010.9 |
| 20260504032210 | 13 | 113 | 0.0 | 1.6 | 0.00 | 0.15 | 0.00 | 94 | 1010.9 |
| 20260504031713 | 13 | 113 | 0.0 | 1.6 | 0.00 | 0.15 | 0.00 | 94 | 1010.9 |
| 20260504031211 | 13 | 113 | 0.0 | 0.0 | 0.00 | 0.15 | 0.00 | 94 | 1010.8 |
| 20260504031021 | 13 | 113 | 0.0 | 0.0 | 0.00 | 0.15 | 0.00 | 94 | 1010.8 |
| 20260504030209 | 13 | 113 | 0.0 | 0.0 | 0.00 | 0.15 | 0.00 | 94 | 1010.9 |
| 20260504030036 | 13 | 113 | 0.0 | 0.0 | 0.00 | 0.15 | 0.00 | 94 | 1010.7 |
| 20260504025517 | 13 | 113 | 0.0 | 1.6 | 0.00 | 0.15 | 0.00 | 94 | 1010.6 |
| 20260504024709 | 13 | 113 | 0.0 | 1.6 | 0.00 | 0.15 | 0.00 | 94 | 1010.6 |
| 20260504024212 | 13 | 107 | 1.6 | 1.6 | 0.00 | 0.15 | 0.00 | 94 | 1010.5 |
| 20260504023709 | 13 | 120 | 0.0 | 3.2 | 0.00 | 0.15 | 0.00 | 94 | 1010.5 |
| 20260504023210 | 13 | 110 | 0.0 | 4.8 | 0.00 | 0.15 | 0.00 | 94 | 1010.5 |
| 20260504022709 | 13 | 100 | 1.6 | 4.8 | 0.00 | 0.15 | 0.00 | 94 | 1010.4 |
| 20260504022208 | 13 | 100 | 1.6 | 6.4 | 0.00 | 0.15 | 0.00 | 94 | 1010.4 |
| 20260504021710 | 13 | 85 | 3.2 | 6.4 | 0.00 | 0.15 | 0.00 | 94 | 1010.5 |
| 20260504021209 | 13 | 109 | 1.6 | 4.8 | 0.00 | 0.15 | 0.00 | 95 | 1010.5 |
| 20260504020709 | 13 | 116 | 3.2 | 4.8 | 0.00 | 0.15 | 0.00 | 95 | 1010.3 |
| 20260504020519 | 13 | 102 | 0.0 | 4.8 | 0.00 | 0.15 | 0.00 | 95 | 1010.3 |
| 20260504020016 | 13 | 116 | 0.0 | 4.8 | 0.00 | 0.15 | 0.00 | 95 | 1010.3 |
| 20260504015209 | 13 | 100 | 1.6 | 8.0 | 0.00 | 0.15 | 0.00 | 95 | 1010.2 |
| 20260504015021 | 13 | 90 | 1.6 | 8.0 | 0.00 | 0.15 | 0.00 | 95 | 1010.3 |
| 20260504014208 | 13 | 104 | 0.0 | 1.6 | 0.00 | 0.15 | 0.00 | 95 | 1010.2 |
| 20260504013709 | 13 | 103 | 1.6 | 1.6 | 0.00 | 0.15 | 0.00 | 95 | 1010.2 |
| 20260504013206 | 13 | 103 | 0.0 | 0.0 | 0.00 | 0.15 | 0.00 | 95 | 1010.3 |
| 20260504012707 | 13 | 103 | 0.0 | 0.0 | 0.00 | 0.15 | 0.00 | 95 | 1010.3 |
| 20260504012209 | 13 | 103 | 0.0 | 0.0 | 0.00 | 0.15 | 0.00 | 95 | 1010.3 |
| 20260504011708 | 13 | 103 | 0.0 | 0.0 | 0.00 | 0.15 | 0.00 | 95 | 1010.4 |
| 20260504011208 | 13 | 103 | 0.0 | 0.0 | 0.00 | 0.15 | 0.00 | 95 | 1010.4 |
| 20260504010707 | 13 | 103 | 0.0 | 0.0 | 0.00 | 0.15 | 0.00 | 95 | 1010.3 |
| 20260504010207 | 13 | 103 | 0.0 | 0.0 | 0.00 | 0.15 | 0.00 | 95 | 1010.4 |
| 20260504005706 | 13 | 103 | 0.0 | 0.0 | 0.00 | 0.15 | 0.00 | 95 | 1010.4 |
| 20260504005204 | 13 | 103 | 0.0 | 0.0 | 0.00 | 0.15 | 0.00 | 95 | 1010.6 |
| 20260504004708 | 13 | 103 | 0.0 | 0.0 | 0.00 | 0.15 | 0.00 | 95 | 1010.7 |
| 20260504004207 | 13 | 103 | 0.0 | 0.0 | 0.00 | 0.15 | 0.00 | 94 | 1010.8 |
| 20260504003708 | 13 | 103 | 0.0 | 1.6 | 0.00 | 0.15 | 0.00 | 94 | 1010.7 |
| 20260504003206 | 13 | 103 | 0.0 | 1.6 | 0.00 | 0.15 | 0.00 | 95 | 1010.5 |
| 20260504002709 | 13 | 103 | 0.0 | 1.6 | 0.00 | 0.15 | 0.00 | 94 | 1010.6 |
| 20260504002206 | 13 | 103 | 0.0 | 1.6 | 0.00 | 0.15 | 0.00 | 94 | 1010.6 |
| 20260504001706 | 13 | 103 | 0.0 | 1.6 | 0.00 | 0.15 | 0.00 | 94 | 1010.6 |
| 20260504001206 | 13 | 103 | 0.0 | 1.6 | 0.00 | 0.15 | 0.00 | 94 | 1010.4 |
| 20260504000707 | 13 | 103 | 0.0 | 1.6 | 0.00 | 0.15 | 0.00 | 94 | 1010.4 |
| 20260504000220 | 13 | 103 | 0.0 | 1.6 | 0.00 | 0.15 | 0.00 | 94 | 1010.5 |
| 20260503235705 | 13 | 106 | 1.6 | 1.6 | 0.00 | 0.15 | 0.00 | 94 | 1010.5 |
| 20260503235208 | 13 | 114 | 0.0 | 1.6 | 0.00 | 0.15 | 0.00 | 94 | 1010.8 |
| 20260503234706 | 13 | 114 | 0.0 | 1.6 | 0.00 | 0.15 | 0.00 | 94 | 1010.8 |
| 20260503234217 | 13 | 114 | 0.0 | 1.6 | 0.00 | 0.15 | 0.00 | 94 | 1010.8 |
| 20260503233706 | 13 | 114 | 0.0 | 1.6 | 0.00 | 0.15 | 0.00 | 94 | 1010.9 |
| 20260503233517 | 13 | 114 | 0.0 | 0.0 | 0.00 | 0.15 | 0.00 | 94 | 1010.7 |
| 20260503232704 | 13 | 114 | 0.0 | 1.6 | 0.00 | 0.15 | 0.00 | 94 | 1010.8 |
| 20260503232204 | 13 | 113 | 0.0 | 1.6 | 0.00 | 0.15 | 0.00 | 94 | 1010.9 |
| 20260503232012 | 13 | 114 | 0.0 | 1.6 | 0.00 | 0.15 | 0.00 | 94 | 1010.8 |
| 20260503231206 | 13 | 114 | 0.0 | 1.6 | 0.00 | 0.15 | 0.00 | 94 | 1010.8 |
| 20260503230815 | 13 | 114 | 0.0 | 1.6 | 0.00 | 0.15 | 0.00 | 94 | 1010.8 |
| 20260503225704 | 13 | 103 | 0.0 | 1.6 | 0.00 | 0.15 | 0.00 | 94 | 1010.8 |
| 20260503225204 | 13 | 103 | 0.0 | 1.6 | 0.00 | 0.15 | 0.00 | 94 | 1010.9 |
| 20260503224702 | 13 | 103 | 0.0 | 1.6 | 0.00 | 0.15 | 0.00 | 94 | 1010.9 |
| 20260503224517 | 13 | 103 | 0.0 | 0.0 | 0.00 | 0.15 | 0.00 | 94 | 1010.9 |
| 20260503223705 | 13 | 103 | 0.0 | 0.0 | 0.00 | 0.15 | 0.00 | 94 | 1011.0 |
| 20260503223206 | 13 | 103 | 0.0 | 0.0 | 0.00 | 0.15 | 0.00 | 94 | 1010.9 |
| 20260503223018 | 13 | 103 | 0.0 | 0.0 | 0.00 | 0.15 | 0.00 | 94 | 1010.9 |
| 20260503222207 | 13 | 103 | 0.0 | 0.0 | 0.00 | 0.15 | 0.00 | 94 | 1011.1 |
| 20260503221704 | 13 | 103 | 0.0 | 0.0 | 0.00 | 0.15 | 0.00 | 94 | 1011.2 |
| 20260503221204 | 13 | 103 | 0.0 | 0.0 | 0.00 | 0.15 | 0.00 | 94 | 1011.2 |
| 20260503220703 | 13 | 103 | 0.0 | 0.0 | 0.00 | 0.15 | 0.00 | 94 | 1011.2 |
| 20260503220204 | 13 | 103 | 0.0 | 0.0 | 0.00 | 0.15 | 0.00 | 94 | 1011.3 |
| 20260503215705 | 13 | 103 | 0.0 | 0.0 | 0.00 | 0.15 | 0.15 | 93 | 1011.3 |
| 20260503215203 | 13 | 103 | 0.0 | 0.0 | 0.00 | 0.15 | 0.15 | 93 | 1011.3 |
| 20260503214705 | 13 | 103 | 0.0 | 0.0 | 0.00 | 0.15 | 0.15 | 93 | 1011.3 |
| 20260503214203 | 13 | 103 | 0.0 | 0.0 | 0.00 | 0.15 | 0.15 | 93 | 1011.3 |
| 20260503213709 | 13 | 103 | 0.0 | 1.6 | 0.00 | 0.15 | 0.15 | 93 | 1011.3 |
| 20260503213204 | 13 | 103 | 0.0 | 1.6 | 0.00 | 0.15 | 0.15 | 93 | 1011.2 |
| 20260503212703 | 14 | 103 | 0.0 | 1.6 | 0.00 | 0.15 | 0.15 | 93 | 1011.2 |
| 20260503212406 | 14 | 103 | 0.0 | 1.6 | 0.03 | 0.15 | 0.15 | 93 | 1011.1 |
| 20260503212315 | 14 | 103 | 0.0 | 1.6 | 0.00 | 0.15 | 0.15 | 93 | 1011.1 |
| 20260503211205 | 14 | 103 | 0.0 | 3.2 | 0.05 | 0.15 | 0.15 | 93 | 1011.3 |
| 20260503210707 | 14 | 111 | 0.0 | 4.8 | 0.08 | 0.15 | 0.15 | 93 | 1011.2 |
| 20260503210205 | 14 | 93 | 1.6 | 6.4 | 0.10 | 0.15 | 0.15 | 93 | 1011.1 |
| 20260503205703 | 14 | 113 | 1.6 | 6.4 | 0.13 | 0.15 | 0.15 | 93 | 1011.0 |
| 20260503205206 | 14 | 113 | 3.2 | 8.0 | 0.15 | 0.15 | 0.15 | 93 | 1011.0 |
| 20260503204702 | 14 | 111 | 3.2 | 8.0 | 0.15 | 0.15 | 0.15 | 93 | 1010.9 |
| 20260503204159 | 14 | 116 | 4.8 | 6.4 | 0.15 | 0.15 | 0.15 | 93 | 1011.0 |
| 20260503204035 | 14 | 89 | 1.6 | 1.6 | 0.15 | 0.15 | 0.15 | 92 | 1011.1 |
| 20260503203201 | 14 | 92 | 0.0 | 1.6 | 0.15 | 0.15 | 0.15 | 92 | 1011.1 |
| 20260503203029 | 14 | 62 | 0.0 | 1.6 | 0.15 | 0.15 | 0.15 | 92 | 1011.2 |
| 20260503202202 | 14 | 62 | 0.0 | 1.6 | 0.15 | 0.15 | 0.15 | 92 | 1011.1 |
| 20260503202035 | 14 | 62 | 0.0 | 1.6 | 0.13 | 0.15 | 0.15 | 91 | 1011.1 |
| 20260503201203 | 14 | 62 | 0.0 | 1.6 | 0.08 | 0.10 | 0.10 | 91 | 1011.1 |
| 20260503201025 | 15 | 341 | 0.0 | 1.6 | 0.08 | 0.08 | 0.08 | 91 | 1011.2 |
| 20260503200531 | 15 | 341 | 1.6 | 1.6 | 0.05 | 0.05 | 0.05 | 90 | 1011.3 |
| 20260503195658 | 15 | 61 | 0.0 | 1.6 | 0.05 | 0.05 | 0.05 | 90 | 1011.2 |
| 20260503195200 | 15 | 113 | 0.0 | 3.2 | 0.03 | 0.03 | 0.03 | 89 | 1011.1 |
| 20260503194702 | 15 | 288 | 0.0 | 3.2 | 0.03 | 0.03 | 0.03 | 89 | 1011.1 |
| 20260503194202 | 15 | 203 | 0.0 | 1.6 | 0.03 | 0.03 | 0.03 | 88 | 1011.1 |
| 20260503194013 | 15 | 203 | 0.0 | 1.6 | 0.03 | 0.03 | 0.03 | 88 | 1011.0 |
| 20260503193202 | 15 | 203 | 0.0 | 4.8 | 0.03 | 0.03 | 0.03 | 88 | 1011.0 |
| 20260503192701 | 15 | 199 | 0.0 | 8.0 | 0.03 | 0.03 | 0.03 | 87 | 1010.9 |
| 20260503192539 | 15 | 109 | 3.2 | 11.3 | 0.03 | 0.03 | 0.03 | 87 | 1010.7 |
| 20260503191701 | 15 | 113 | 4.8 | 11.3 | 0.03 | 0.03 | 0.03 | 87 | 1010.3 |
| 20260503191157 | 15 | 107 | 4.8 | 14.5 | 0.03 | 0.03 | 0.03 | 87 | 1010.2 |
| 20260503190700 | 15 | 99 | 6.4 | 16.1 | 0.00 | 0.00 | 0.00 | 86 | 1010.1 |
| 20260503190159 | 15 | 113 | 9.7 | 17.7 | 0.00 | 0.00 | 0.00 | 85 | 1010.1 |
| 20260503185705 | 15 | 97 | 11.3 | 17.7 | 0.00 | 0.00 | 0.00 | 84 | 1010.2 |
| 20260503185200 | 16 | 96 | 6.4 | 17.7 | 0.00 | 0.00 | 0.00 | 84 | 1010.2 |
| 20260503184702 | 16 | 110 | 9.7 | 17.7 | 0.00 | 0.00 | 0.00 | 83 | 1010.1 |
| 20260503184200 | 16 | 93 | 4.8 | 22.5 | 0.00 | 0.00 | 0.00 | 83 | 1010.1 |
| 20260503183700 | 16 | 104 | 8.0 | 22.5 | 0.00 | 0.00 | 0.00 | 83 | 1010.0 |
| 20260503183536 | 16 | 92 | 8.0 | 19.3 | 0.00 | 0.00 | 0.00 | 83 | 1009.9 |
| 20260503182658 | 16 | 117 | 9.7 | 19.3 | 0.00 | 0.00 | 0.00 | 83 | 1009.9 |
| 20260503182405 | 16 | 125 | 9.7 | 20.9 | 0.00 | 0.00 | 0.00 | 83 | 1010.0 |
| 20260503182317 | 16 | 128 | 9.7 | 19.3 | 0.00 | 0.00 | 0.00 | 83 | 1009.9 |
| 20260503181202 | 16 | 80 | 9.7 | 27.4 | 0.00 | 0.00 | 0.00 | 83 | 1010.0 |
| 20260503180659 | 16 | 102 | 12.9 | 27.4 | 0.00 | 0.00 | 0.00 | 82 | 1009.9 |
| 20260503180530 | 16 | 83 | 9.7 | 19.3 | 0.00 | 0.00 | 0.00 | 83 | 1009.8 |
| 20260503175659 | 16 | 107 | 9.7 | 25.7 | 0.00 | 0.00 | 0.00 | 83 | 1009.8 |
| 20260503175158 | 16 | 104 | 14.5 | 25.7 | 0.00 | 0.00 | 0.00 | 82 | 1009.7 |
| 20260503174657 | 16 | 82 | 12.9 | 25.7 | 0.00 | 0.00 | 0.00 | 82 | 1009.6 |
| 20260503174155 | 16 | 121 | 9.7 | 20.9 | 0.00 | 0.00 | 0.00 | 82 | 1009.7 |
| 20260503173659 | 16 | 97 | 12.9 | 27.4 | 0.00 | 0.00 | 0.00 | 82 | 1009.6 |
| 20260503173158 | 16 | 114 | 14.5 | 27.4 | 0.00 | 0.00 | 0.00 | 82 | 1009.7 |
| 20260503173029 | 16 | 107 | 16.1 | 32.2 | 0.00 | 0.00 | 0.00 | 82 | 1009.7 |
| 20260503172157 | 16 | 117 | 16.1 | 32.2 | 0.00 | 0.00 | 0.00 | 82 | 1009.8 |
| 20260503171658 | 16 | 103 | 17.7 | 27.4 | 0.00 | 0.00 | 0.00 | 81 | 1009.8 |
| 20260503171158 | 16 | 102 | 14.5 | 33.8 | 0.00 | 0.00 | 0.00 | 81 | 1010.0 |
| 20260503171020 | 16 | 93 | 16.1 | 33.8 | 0.00 | 0.00 | 0.00 | 81 | 1009.9 |
| 20260503170158 | 16 | 100 | 14.5 | 30.6 | 0.00 | 0.00 | 0.00 | 81 | 1010.1 |
| 20260503160155 | 17 | 97 | 19.3 | 29.0 | 0.00 | 0.00 | 0.00 | 78 | 1010.1 |
| 20260503150655 | 19 | 103 | 16.1 | 32.2 | 0.00 | 0.00 | 0.00 | 74 | 1010.6 |
| 20260503150153 | 18 | 71 | 19.3 | 41.8 | 0.00 | 0.00 | 0.00 | 75 | 1010.5 |
| 20260503140153 | 20 | 135 | 14.5 | 29.0 | 0.00 | 0.00 | 0.00 | 70 | 1011.5 |
| 20260503131151 | 21 | 116 | 16.1 | 27.4 | 0.00 | 0.00 | 0.00 | 65 | 1011.5 |
| 20260503131004 | 21 | 96 | 12.9 | 20.9 | 0.00 | 0.00 | 0.00 | 65 | 1011.6 |
| 20260503130149 | 21 | 80 | 11.3 | 19.3 | 0.00 | 0.00 | 0.00 | 65 | 1011.6 |
| 20260503120146 | 21 | 92 | 11.3 | 24.1 | 0.00 | 0.00 | 0.00 | 67 | 1012.2 |
| 20260503110647 | 20 | 113 | 8.0 | 19.3 | 0.00 | 0.00 | 0.00 | 65 | 1012.7 |
| 20260503110200 | 21 | 121 | 4.8 | 16.1 | 0.00 | 0.00 | 0.00 | 67 | 1012.8 |
| 20260503100159 | 20 | 102 | 6.4 | 19.3 | 0.00 | 0.00 | 0.00 | 71 | 1013.1 |